[[{"header":{"parameterUnit":"m.s-1","parameterCategory":1,"la1":30.2991,"la2":30.254,"lo1":-89.0895,"lo2":-89.0444,"dy":0.0017,"dx":0.0017,"nx":28,"ny":28,"refTime":"2025-12-23T09:00:00:Z","depth":0,"parameterNumber":2,"parameterNumberName":"U-component_of_WINDS"},"data":[0,0,0,0,0,0,0,0,0,0,0,0,0,0,0,0,0,0,0,0,0,0,0,0,0,0,0,0,0,0,0,0,0,0,0,0,0,0,0,0,0,0,0,0,0,0,0,0,0,0,0,0,0,0,0,0,0,0,0.2267,0.2268,0,0.232,0.2321,0.2321,0.2344,0.2344,0.2344,0.2344,0.2399,0.24,0.2402,0,0,0,0,0,0,0,0,0,0,0,0,0,0.2186,0.2188,0.2267,0.2268,0.2269,0.232,0.2321,0.2321,0.2344,0.2344,0.2344,0.2344,0.2398,0.24,0.2402,0,0,0,0,0,0,0,0,0,0,0,0,0,0.2228,0.2188,0.2267,0.2286,0.2288,0.232,0.2321,0.2322,0.2344,0.2344,0.2344,0.2344,0.2398,0.24,0.2402,0.2419,0,0,0.2409,0.241,0,0,0,0,0,0,0,0,0.2226,0.2231,0.2283,0.2285,0.2287,0.2325,0.2312,0.2354,0.2344,0.2323,0.2344,0.2344,0.2375,0.2379,0.2389,0.2422,0.2424,0.241,0.2411,0.2412,0.2413,0,0,0,0,0,0,0,0.2223,0.2229,0.2288,0.2283,0.2286,0.2292,0.2298,0.232,0.2349,0.2325,0.2327,0.2333,0.2376,0.2387,0.239,0.2425,0.241,0.2412,0.2413,0.2414,0.2474,0.2474,0,0,0,0,0,0,0.2217,0.2227,0.2287,0.229,0.2256,0.2294,0.23,0.2313,0.2349,0.2354,0.2333,0.2333,0.2383,0.2388,0.2393,0.2415,0.2412,0.2414,0.2415,0.2474,0.2474,0.2474,0,0,0,0,0,0,0.2215,0.2222,0.2284,0.2259,0.2267,0.2295,0.231,0.2314,0.2325,0.2355,0.236,0.2338,0.2383,0.2389,0.2412,0.2417,0.2415,0.2417,0.2473,0.2474,0.2474,0.2459,0,0,0,0,0,0,0.2213,0.2221,0.2228,0.2259,0.2268,0.2303,0.231,0.2316,0.2329,0.2331,0.2361,0.2366,0.2383,0.2409,0.2415,0.242,0.2419,0.2473,0.2474,0.2474,0.2459,0.2458,0.2458,0,0,0,0,0,0.221,0.2222,0.2228,0.2235,0.2277,0.2303,0.2309,0.2328,0.2329,0.2336,0.2355,0.2365,0.2415,0.2411,0.2418,0.2424,0.2473,0.2474,0.2474,0.2459,0.2458,0.2458,0,0,0,0,0,0,0.2191,0.2226,0.2234,0.2256,0.2276,0.2307,0.2317,0.2327,0.2347,0.2348,0.2371,0.2378,0.2399,0.2414,0.2408,0.2442,0.2445,0.2447,0.2431,0.2431,0.243,0.2427,0.2421,0,0,0,0,0,0.219,0.2208,0.2237,0.2254,0.2264,0.2288,0.23,0.2313,0.2335,0.2344,0.2365,0.2386,0.2407,0.242,0.244,0.2461,0.2468,0.2468,0.2468,0.2467,0.2469,0.2481,0.2481,0.2476,0.2476,0.2476,0,0,0.2187,0.2208,0.2218,0.2251,0.2268,0.2287,0.2296,0.2315,0.2328,0.2347,0.237,0.2386,0.2411,0.2433,0.2444,0.2446,0.2472,0.2468,0.2467,0.2469,0.2481,0.2482,0.2482,0.2476,0.2476,0.2476,0,0,0.2191,0.2209,0.2225,0.2242,0.2268,0.2284,0.2287,0.2316,0.2327,0.2351,0.2365,0.2382,0.2417,0.2434,0.2447,0.2457,0.2468,0.2463,0.2461,0.2472,0.2473,0.2473,0.2477,0.2478,0.2465,0.2464,0.2464,0,0.2184,0.2212,0.2232,0.225,0.2264,0.2281,0.2297,0.2313,0.2344,0.2354,0.2356,0.2399,0.2418,0.2444,0.2446,0.2456,0.2461,0.246,0.2471,0.2472,0.2473,0.2476,0.2477,0.2464,0.2464,0.2464,0.2464,0,0.2202,0.2221,0.2231,0.2261,0.2276,0.2293,0.2315,0.2327,0.2339,0.2354,0.2378,0.24,0.2425,0.2432,0.2444,0.246,0.2461,0.2467,0.247,0.2472,0.2476,0.2477,0.2463,0.2463,0.2463,0.2463,0,0,0.2197,0.2236,0.2239,0.2253,0.2283,0.2298,0.2315,0.234,0.235,0.2371,0.2387,0.2415,0.2421,0.2436,0.2449,0.2459,0.2465,0.2464,0.2465,0.2463,0.2484,0.248,0.2481,0.2472,0.2472,0.2473,0.2482,0,0.2205,0.2237,0.2255,0.228,0.2298,0.2314,0.233,0.2349,0.2364,0.2382,0.2399,0.2419,0.2424,0.2433,0.2444,0.2462,0.247,0.2462,0.2487,0.2488,0.248,0.2483,0.2479,0.2487,0.2484,0.2484,0.2484,0,0.2219,0.2239,0.2265,0.2293,0.2301,0.2314,0.2338,0.2354,0.2377,0.2387,0.2404,0.2417,0.2436,0.2438,0.2465,0.2459,0.247,0.2481,0.2481,0.2485,0.2486,0.2487,0.249,0.2491,0.2487,0.2487,0.2487,0,0.2212,0.2246,0.2266,0.2277,0.2309,0.2318,0.2332,0.2355,0.2368,0.2389,0.2397,0.242,0.2432,0.2449,0.2468,0.2468,0.2493,0.2497,0.2502,0.2502,0.2507,0.2507,0.2512,0.2514,0.2514,0.2514,0.2514,0,0.2219,0.2235,0.2263,0.2276,0.2293,0.2314,0.2331,0.2346,0.2366,0.2382,0.2397,0.2412,0.2436,0.2453,0.2468,0.2488,0.2493,0.2502,0.2506,0.2501,0.25,0.2509,0.2509,0.2514,0.2514,0.2514,0.2514,0,0.2214,0.2234,0.2257,0.2286,0.2293,0.2305,0.233,0.2342,0.2358,0.2378,0.2383,0.2408,0.2429,0.245,0.2478,0.2488,0.2508,0.2513,0.25,0.2502,0.2507,0.2506,0.2519,0.2521,0.2521,0.2521,0.2521,0,0.2218,0.223,0.226,0.2271,0.2285,0.2303,0.2317,0.2337,0.235,0.2377,0.2386,0.2409,0.2428,0.2461,0.2481,0.2503,0.2509,0.2512,0.2512,0.2507,0.2509,0.2508,0.2509,0.2511,0.2511,0.2511,0.2511,0,0.2222,0.2231,0.2249,0.2272,0.2287,0.2306,0.2324,0.2333,0.2357,0.2371,0.2393,0.2407,0.2436,0.2458,0.2482,0.2497,0.2508,0.251,0.2513,0.2508,0.25,0.2504,0.2499,0.251,0.251,0.251,0.251,0.251,0.2221,0.2233,0.2255,0.2276,0.2292,0.2309,0.2323,0.234,0.2358,0.2383,0.2394,0.2416,0.2438,0.2471,0.2485,0.2503,0.2506,0.2509,0.251,0.2511,0.251,0.2497,0.2507,0.2507,0.2507,0.2507,0.2508,0,0.2226,0.2241,0.226,0.2285,0.2301,0.231,0.2331,0.2344,0.2363,0.2383,0.2401,0.2426,0.2447,0.2469,0.2491,0.2501,0.2506,0.2506,0.2506,0.2509,0.2506,0.2502,0.2501,0.2501,0.2501,0.2501,0.2501,0.2501,0.223,0.225,0.2262,0.229,0.2305,0.2327,0.2338,0.2354,0.237,0.2397,0.2414,0.2428,0.2449,0.2473,0.2493,0.2499,0.2506,0.2504,0.2512,0.2509,0.2509,0.2509,0.2505,0.2506,0.2506,0.2513,0.2513,0.2513]},{"header":{"parameterUnit":"m.s-1","parameterCategory":1,"la1":30.2991,"la2":30.254,"lo1":-89.0895,"lo2":-89.0444,"dy":0.0017,"dx":0.0017,"nx":28,"ny":28,"refTime":"2025-12-23T09:00:00:Z","depth":0,"parameterNumber":3,"parameterNumberName":"V-component_of_WINDS"},"data":[0,0,0,0,0,0,0,0,0,0,0,0,0,0,0,0,0,0,0,0,0,0,0,0,0,0,0,0,0,0,0,0,0,0,0,0,0,0,0,0,0,0,0,0,0,0,0,0,0,0,0,0,0,0,0,0,0,0,0.9227,0.9227,0,0.9144,0.9143,0.9142,0.9129,0.913,0.9131,0.9132,0.904,0.9037,0.9034,0,0,0,0,0,0,0,0,0,0,0,0,0,0.9369,0.9366,0.9227,0.9226,0.9225,0.9144,0.9143,0.9142,0.9129,0.913,0.9131,0.9132,0.9041,0.9037,0.9034,0,0,0,0,0,0,0,0,0,0,0,0,0,0.9299,0.9366,0.9228,0.9209,0.9207,0.9145,0.9143,0.9142,0.9129,0.913,0.9131,0.9132,0.9042,0.9038,0.9033,0.8981,0,0,0.9019,0.9017,0,0,0,0,0,0,0,0,0.9303,0.9293,0.9213,0.9211,0.9208,0.9148,0.916,0.9088,0.9129,0.9158,0.9132,0.9133,0.9075,0.9068,0.9049,0.8977,0.8973,0.9018,0.9015,0.9013,0.9012,0,0,0,0,0,0,0,0.9308,0.9297,0.9194,0.9212,0.9209,0.9203,0.9195,0.9146,0.9111,0.9156,0.9155,0.9145,0.9073,0.9054,0.9047,0.8972,0.9018,0.9014,0.9011,0.901,0.8852,0.885,0,0,0,0,0,0,0.9317,0.9301,0.9197,0.9192,0.9259,0.92,0.919,0.9166,0.9112,0.9104,0.9145,0.9145,0.9061,0.9052,0.9044,0.8978,0.9014,0.9009,0.9006,0.8853,0.8851,0.885,0,0,0,0,0,0,0.932,0.9308,0.92,0.9246,0.9232,0.9196,0.9169,0.9164,0.9144,0.9103,0.9096,0.9131,0.9062,0.905,0.8997,0.8975,0.9007,0.9003,0.8854,0.8852,0.885,0.8848,0,0,0,0,0,0,0.9324,0.9309,0.929,0.9246,0.923,0.9157,0.9168,0.9161,0.9137,0.9137,0.9089,0.9082,0.9062,0.9004,0.8992,0.8969,0.8999,0.8856,0.8854,0.8851,0.885,0.8846,0.8843,0,0,0,0,0,0.9329,0.9292,0.9289,0.9277,0.9206,0.9156,0.9146,0.9126,0.9135,0.9115,0.9089,0.9083,0.898,0.8999,0.8985,0.896,0.8857,0.8854,0.8851,0.8851,0.8847,0.8843,0,0,0,0,0,0,0.9332,0.9286,0.9282,0.923,0.9197,0.9154,0.9128,0.9122,0.9084,0.9085,0.906,0.9049,0.8997,0.8973,0.8995,0.8907,0.8919,0.8913,0.8924,0.8919,0.8916,0.8921,0.8995,0,0,0,0,0,0.9327,0.9292,0.9253,0.921,0.9194,0.9164,0.9141,0.9129,0.9092,0.9078,0.9047,0.9011,0.897,0.8944,0.8904,0.8847,0.8835,0.8823,0.882,0.8817,0.8811,0.8778,0.8772,0.884,0.884,0.884,0,0,0.9315,0.9286,0.9265,0.921,0.9183,0.9145,0.9152,0.9112,0.9083,0.9071,0.9019,0.8996,0.8953,0.8898,0.8872,0.8876,0.879,0.8813,0.8811,0.8807,0.8774,0.8768,0.8762,0.8837,0.8838,0.8838,0,0,0.9275,0.925,0.9211,0.9184,0.9144,0.9125,0.9115,0.9073,0.9057,0.9005,0.8995,0.8959,0.889,0.886,0.8835,0.8784,0.8776,0.8771,0.8752,0.872,0.8715,0.871,0.8689,0.8683,0.8766,0.8766,0.8766,0,0.9265,0.9209,0.9191,0.9152,0.9127,0.9117,0.9076,0.9051,0.8999,0.8981,0.8988,0.89,0.8871,0.8807,0.8795,0.8776,0.8763,0.8776,0.8717,0.8712,0.8707,0.8688,0.868,0.8766,0.8766,0.8766,0.8766,0,0.9198,0.916,0.9133,0.9085,0.9058,0.9018,0.8992,0.8966,0.8955,0.8934,0.8881,0.8845,0.8798,0.8782,0.8771,0.8717,0.8721,0.8723,0.8734,0.8701,0.8682,0.8674,0.8765,0.8765,0.8766,0.8766,0,0,0.9156,0.9099,0.909,0.9067,0.9023,0.8991,0.895,0.8906,0.8883,0.8848,0.8811,0.8753,0.8754,0.8727,0.8712,0.8684,0.8643,0.8689,0.8688,0.868,0.8579,0.8576,0.8568,0.8639,0.8638,0.8636,0.8582,0,0.9108,0.9037,0.902,0.8957,0.8921,0.8911,0.8874,0.8842,0.8821,0.8785,0.8761,0.872,0.8727,0.8709,0.8682,0.8654,0.8622,0.8658,0.8602,0.86,0.8611,0.8558,0.8555,0.8505,0.8574,0.8573,0.8572,0,0.9043,0.9009,0.8943,0.8903,0.8887,0.8855,0.8812,0.8779,0.8741,0.8728,0.8697,0.8685,0.864,0.8656,0.8591,0.8616,0.8592,0.8575,0.8573,0.8565,0.8583,0.8547,0.8489,0.8481,0.8561,0.8562,0.8562,0,0.9017,0.8954,0.8906,0.8888,0.8839,0.8817,0.8795,0.8759,0.8733,0.8695,0.8678,0.8635,0.861,0.8576,0.8552,0.8566,0.8489,0.8503,0.8475,0.8475,0.8457,0.8458,0.8393,0.8445,0.8445,0.8445,0.8446,0,0.8965,0.8925,0.8893,0.8864,0.8818,0.8798,0.8753,0.8731,0.8698,0.8663,0.8651,0.8617,0.8589,0.8551,0.8532,0.848,0.847,0.8456,0.8451,0.8456,0.8458,0.8438,0.8441,0.8443,0.8444,0.8444,0.8445,0,0.8927,0.8905,0.8852,0.8811,0.88,0.8768,0.8732,0.8702,0.8681,0.8636,0.8624,0.8591,0.8546,0.8519,0.8462,0.8449,0.8391,0.8388,0.8404,0.8402,0.8374,0.8376,0.8292,0.8279,0.8342,0.8342,0.8341,0,0.8894,0.8863,0.882,0.8796,0.8775,0.8737,0.8711,0.869,0.8663,0.8617,0.8592,0.8547,0.8509,0.8436,0.8405,0.8361,0.8356,0.8329,0.8349,0.8354,0.8353,0.8354,0.835,0.8325,0.8325,0.8324,0.8324,0,0.8838,0.8828,0.8793,0.8753,0.8722,0.8689,0.8656,0.8637,0.861,0.8579,0.8534,0.8505,0.8447,0.8401,0.8354,0.8329,0.8321,0.8319,0.8309,0.8313,0.8323,0.8315,0.8393,0.832,0.832,0.8321,0.8321,0.8321,0.88,0.8772,0.8737,0.8697,0.867,0.864,0.8609,0.8586,0.8548,0.85,0.849,0.8441,0.8403,0.8339,0.8313,0.8274,0.8278,0.8265,0.8261,0.8258,0.8256,0.8331,0.8265,0.8265,0.8265,0.8265,0.8265,0,0.8741,0.8719,0.8683,0.8638,0.8606,0.8604,0.8567,0.854,0.8498,0.8464,0.8428,0.8374,0.833,0.8296,0.825,0.8224,0.8219,0.8213,0.8213,0.8207,0.8256,0.8268,0.8218,0.8218,0.8218,0.8218,0.8218,0.8218,0.8707,0.8659,0.8646,0.8583,0.856,0.8514,0.8493,0.8464,0.8437,0.8379,0.8343,0.8322,0.8287,0.8238,0.8197,0.8188,0.817,0.8164,0.8154,0.8199,0.8204,0.8209,0.822,0.8161,0.8161,0.8108,0.8108,0.8108]}]]